Eugene, OR

2:17 AM PDT on August 24, 2017 (GMT -0700)
Mahlon Sweet

Weather History for KEUG - January, 2014

Change the Weather History Date:

Tuesday, January 28, 2014

  Actual Average Record
Temperature  
Mean Temperature 42 °F 42 °F  
Max Temperature 45 °F 49 °F 63 °F (1976)
Min Temperature 38 °F 35 °F 1 °F (1969)
Degree Days  
Heating Degree Days 23 23  
Month to date heating degree days 716 683  
Since 1 July heating degree days 2862 2640  
Cooling Degree Days 0 0  
Month to date cooling degree days 0 0  
Year to date cooling degree days 0 0  
Moisture  
Dew Point 38 °F    
Average Humidity 91    
Maximum Humidity 96    
Minimum Humidity 85    
Precipitation  
Precipitation 0.60 in 0.19 in 1.57 in (1990)
Month to date precipitation 2.43 6.28  
Year to date precipitation 2.43 6.28  
Sea Level Pressure  
Sea Level Pressure 30.17 in    
Wind  
Wind Speed 3 mph (NW)    
Max Wind Speed 8 mph    
Max Gust Speed 9 mph    
Visibility 5 miles    
Events Rain    
T = Trace of Precipitation, MM = Missing Value Source: NWS Daily Summary

Daily Weather History Graph

Daily Weather History Graph

Search for Another Location

Airport or City:

Trip Planner

Search our weather history database for the weather conditions in past years. The results will help you decide how hot, cold, wet, or windy it might be!

Date:

Astronomy

Jan. 28, 2014 Rise Set
Actual Time 7:34 AM PST 5:17 PM PST
Civil Twilight 7:03 AM PST 5:48 PM PST
Nautical Twilight 6:28 AM PST 6:23 PM PST
Astronomical Twilight 5:54 AM PST 6:57 PM PST
Moon 5:22 AM PST (1/28) 3:12 PM PST (1/28)
Length of Visible Light 10h 45m
Length of Day
9h 42m
Waning Crescent, 6% of the Moon is Illuminated
Jan 28
Waning Crescent
Jan 30
New
Feb 6
First Quarter
Feb 14
Full
Feb 22
Last Quarter

Hourly Weather History & Observations

Time (PST) Temp. Windchill Dew Point Humidity Pressure Visibility Wind Dir Wind Speed Gust Speed Precip Events Conditions
12:54 AM 37.9 °F 34.4 °F 35.1 °F 89% 30.26 in 10.0 mi NNE 4.6 mph - N/A   Overcast
1:54 AM 37.9 °F - 35.1 °F 89% 30.26 in 10.0 mi Calm Calm - N/A   Overcast
2:54 AM 37.9 °F - 35.1 °F 89% 30.26 in 10.0 mi Calm Calm - N/A   Overcast
3:37 AM 39.0 °F - 35.1 °F 86% 30.24 in 10.0 mi Calm Calm - N/A   Overcast
3:54 AM 39.0 °F - 35.1 °F 86% 30.25 in 10.0 mi Calm Calm - N/A   Overcast
4:37 AM 39.0 °F - 35.1 °F 86% 30.24 in 10.0 mi Calm Calm - N/A   Overcast
4:54 AM 39.0 °F - 35.1 °F 86% 30.25 in 10.0 mi Calm Calm - N/A   Overcast
5:40 AM 39.0 °F - 36.0 °F 89% 30.23 in 9.0 mi Calm Calm - N/A   Overcast
5:54 AM 39.0 °F - 35.1 °F 86% 30.24 in 10.0 mi Calm Calm - N/A   Overcast
6:05 AM 39.0 °F - 36.0 °F 89% 30.23 in 10.0 mi Calm Calm - N/A   Overcast
6:54 AM 39.0 °F - 36.0 °F 89% 30.24 in 10.0 mi Calm Calm - N/A   Overcast
7:54 AM 39.0 °F - 36.0 °F 89% 30.25 in 3.0 mi Calm Calm - N/A   Overcast
8:05 AM 39.0 °F 36.8 °F 36.0 °F 89% 30.23 in 3.0 mi ENE 3.5 mph - N/A   Overcast
8:41 AM 39.0 °F - 36.0 °F 89% 30.24 in 5.0 mi Calm Calm - N/A   Overcast
8:54 AM 39.0 °F - 36.0 °F 89% 30.25 in 6.0 mi Calm Calm - N/A   Overcast
9:35 AM 37.9 °F 34.4 °F 36.0 °F 93% 30.25 in 3.0 mi North 4.6 mph - 0.00 in Rain Light Rain
9:41 AM 37.9 °F 33.5 °F 36.0 °F 93% 30.25 in 2.5 mi North 5.8 mph - 0.00 in Rain Light Rain
9:54 AM 37.9 °F 34.4 °F 36.0 °F 93% 30.26 in 2.0 mi NNE 4.6 mph - 0.01 in Rain Light Rain
10:31 AM 39.0 °F 36.8 °F 37.0 °F 93% 30.25 in 2.0 mi NNE 3.5 mph - 0.02 in Rain Light Rain
10:54 AM 39.9 °F - 37.0 °F 89% 30.25 in 2.0 mi Calm Calm - 0.03 in Rain Light Rain
11:54 AM 39.9 °F 36.7 °F 37.0 °F 89% 30.23 in 2.0 mi NNW 4.6 mph - 0.02 in Rain Light Rain
12:54 PM 41.0 °F - 39.0 °F 93% 30.19 in 2.0 mi Calm Calm - 0.05 in Rain Light Rain
1:41 PM 41.0 °F 38.0 °F 39.0 °F 93% 30.16 in 1.5 mi North 4.6 mph - 0.04 in Rain Light Rain
1:51 PM 41.0 °F 39.0 °F 39.2 °F 93% 30.16 in 1.5 mi NNE 3.5 mph - 0.07 in Rain Rain
1:54 PM 41.0 °F 38.0 °F 39.0 °F 93% 30.16 in 1.5 mi NE 4.6 mph - 0.07 in Rain Light Rain
2:43 PM 41.0 °F 38.0 °F 39.0 °F 93% 30.15 in 1.2 mi NNW 4.6 mph - 0.07 in Rain Rain
2:54 PM 41.0 °F 38.0 °F 39.0 °F 93% 30.16 in 1.5 mi NNW 4.6 mph - 0.10 in Rain Light Rain
3:02 PM 41.0 °F 38.0 °F 39.0 °F 93% 30.15 in 1.5 mi NW 4.6 mph - 0.01 in Rain Light Rain
3:25 PM 41.0 °F 38.0 °F 39.0 °F 93% 30.15 in 2.5 mi NNE 4.6 mph - 0.05 in Rain Light Rain
3:39 PM 41.0 °F 38.0 °F 39.0 °F 93% 30.15 in 1.2 mi North 4.6 mph - 0.06 in Rain Rain
3:51 PM 39.2 °F 35.9 °F 39.2 °F 100% 30.14 in 1.0 mi North 4.6 mph - 0.10 in Rain Rain
3:54 PM 41.0 °F 38.0 °F 39.0 °F 93% 30.15 in 1.0 mi North 4.6 mph - 0.10 in Rain Light Rain
4:13 PM 41.0 °F 39.0 °F 39.0 °F 93% 30.15 in 2.0 mi NNW 3.5 mph - 0.03 in Rain Light Rain
4:54 PM 41.0 °F - 39.0 °F 93% 30.15 in 2.5 mi Calm Calm - 0.08 in Rain Light Rain
5:05 PM 41.0 °F - 37.9 °F 89% 30.13 in 2.5 mi Calm Calm - 0.00 in   Overcast
5:50 PM 41.0 °F 38.0 °F 39.2 °F 93% 30.10 in 2.5 mi SSW 4.6 mph - 0.00 in Rain Light Rain
5:54 PM 41.0 °F 39.0 °F 39.0 °F 93% 30.11 in 4.0 mi SSW 3.5 mph - 0.00 in Rain Light Rain
6:49 PM 41.0 °F 39.0 °F 39.2 °F 93% 30.10 in 4.0 mi West 3.5 mph - 0.03 in Rain Light Rain
6:54 PM 41.0 °F 39.0 °F 39.9 °F 96% 30.11 in 4.0 mi West 3.5 mph - 0.04 in Rain Light Rain
7:02 PM 41.0 °F 38.0 °F 39.9 °F 96% 30.10 in 4.0 mi SW 4.6 mph - 0.00 in Rain Light Rain
7:51 PM 41.0 °F 35.8 °F 39.2 °F 93% 30.08 in 6.0 mi South 8.1 mph - 0.05 in Rain Light Rain
7:54 PM 42.1 °F 37.1 °F 39.9 °F 92% 30.08 in 6.0 mi South 8.1 mph - 0.05 in Rain Light Rain
8:50 PM 42.8 °F 40.1 °F 41.0 °F 93% 30.07 in 7.0 mi SSW 4.6 mph - 0.02 in   Overcast
8:54 PM 42.1 °F 39.2 °F 41.0 °F 96% 30.07 in 7.0 mi SSW 4.6 mph - 0.02 in   Overcast
9:40 PM 43.0 °F 41.3 °F 41.0 °F 93% 30.07 in 9.0 mi SSW 3.5 mph - 0.00 in Rain Light Rain
9:54 PM 43.0 °F 40.3 °F 41.0 °F 93% 30.07 in 8.0 mi South 4.6 mph - 0.00 in Rain Light Rain
10:47 PM 45.0 °F 43.5 °F 44.1 °F 97% 30.03 in 6.0 mi South 3.5 mph - 0.03 in Rain Light Rain
10:54 PM 44.1 °F 41.5 °F 43.0 °F 96% 30.04 in 6.0 mi SSW 4.6 mph - 0.03 in Rain Light Rain
11:38 PM 44.1 °F 41.5 °F 43.0 °F 96% 30.01 in 4.0 mi South 4.6 mph - 0.00 in   Overcast
11:54 PM 45.0 °F 42.6 °F 43.0 °F 93% 30.01 in 5.0 mi South 4.6 mph - 0.00 in   Overcast